Location: Chagrin Falls Park
(41.4139°N, 81.3865°W)
Time: 22:52:52
(UTC+00:00)

Cosmos 292 Rocket - Pass Details

Date: 29 October 2020
Orbit: 672 x 695 km, 74.0° (Epoch: 29 November)

Event Time Altitude Azimuth Distance (km) Brightness Sun altitude
Rises 22:44:33 0° 201° (SSW) 3,022 7.6 -4.6°
Reaches altitude 10° 22:46:50 10° 203° (SSW) 2,115 6.9 -5.0°
Maximum altitude 22:51:36 78° 289° (WNW) 703 4.0 -5.9°
Drops below altitude 10° 22:56:26 10° 17° (NNE) 2,145 6.0 -6.8°
Sets 22:58:46 0° 19° (NNE) 3,069 6.8 -7.2°
